Regional Weather Roundup
Issued by NWS

Home | Current Version | Previous Version | Graphics & Text | Print | Product List | Glossary On
Versions: 1 2 3 4 5 6 7 8 9 10 11 12 13 14 15 16 17 18 19 20 21 22 23 24 25 26 27 28 29 30 31 32 33 34 35 36 37 38 39 40 41 42 43 44 45 46 47 48 49 50
000
ASUS43 KFSD 240602
RWRSD

WEATHER ROUNDUP FOR SOUTH DAKOTA
NATIONAL WEATHER SERVICE SIOUX FALLS SD
100 AM CDT THU AUG 24 2017

NOTE: "FAIR" INDICATES FEW OR NO CLOUDS BELOW 12,000 FEET WITH NO
SIGNIFICANT WEATHER AND/OR OBSTRUCTIONS TO VISIBILITY.


SDZ001>005-009-010-012>017-240700-
NORTHWEST AND NORTH CENTRAL SOUTH DAKOTA

CITY           SKY/WX    TMP DP  RH WIND       PRES   REMARKS
BUFFALO          N/A     68  58  70 SE10      29.93R
FAITH            N/A     65  62  90 E10       29.97S
MOBRIDGE       CLEAR     64  59  83 E7        29.94R
$$

SDZ012>016-024>037-041>051-057-063-072>074-240700-
SOUTHWEST AND SOUTH CENTRAL SOUTH DAKOTA

CITY           SKY/WX    TMP DP  RH WIND       PRES   REMARKS
RAPID CTY ARPT CLOUDY    64  54  69 CALM      30.00R
PIERRE         CLEAR     65  60  84 NE12      29.91R
CUSTER         CLOUDY    62  46  55 NE3       30.14R
ELLSWORTH AFB  CLOUDY    69  56  62 SW5       30.00R
PHILIP         CLEAR     64  59  83 CALM      29.93S
PINE RIDGE     CLOUDY    69  61  75 SE3       29.97F
SPEARFISH      FAIR      68  50  52 E12       30.01S
WINNER         FAIR      72  60  66 SW13      29.91R
$$

SDZ004>011-016>023-039-040-240700-
NORTHEAST SOUTH DAKOTA

CITY           SKY/WX    TMP DP  RH WIND       PRES   REMARKS
ABERDEEN       CLEAR     60  58  92 NE7       29.98R
WATERTOWN      CLEAR     63  59  87 E7        30.00S
BROOKINGS      MOCLDY    64  60  87 SE12      30.00S
SISSETON         N/A     57  55  93 CALM      30.03R
$$

SDZ017-020-022-023-036>040-048>070-240700-
SOUTHEAST SOUTH DAKOTA

CITY           SKY/WX    TMP DP  RH WIND       PRES   REMARKS
SIOUX FALLS    CLOUDY    69  60  73 SE10      30.00R
HURON          MOCLDY    68  61  78 SE13      29.93S
CHAMBERLAIN    CLEAR     65  64  95 E8        29.91R
MITCHELL       PTCLDY    67  61  81 SE12      29.93F
YANKTON        CLEAR     65  60  84 SE8       29.97S
$$

ABBREVIATIONS USED IN REMARKS
   TC - TEMPERATURE IN CELSIUS
  WCI - WIND CHILL INDEX
   HX - HEAT INDEX
  VSB - VISIBILITY




USA.gov is the U.S. government's official web portal to all federal, state and local government web resources and services.